Time,TemperatureF,DewpointF,PressureIn,WindDirection,WindDirectionDegrees,WindSpeedMPH,WindSpeedGustMPH,Humidity,HourlyPrecipIn,Conditions,Clouds,dailyrainin,SoftwareType,DateUTC
2013-04-04 00:00:00,26.0,10.0,-100.00,NNE,14,13.0,19.0,50,-99.99,,,-99.99,,2013-04-04 06:00:00,
2013-04-04 00:43:00,26.0,10.0,-100.00,NNE,14,13.0,19.0,50,-99.99,,,-99.99,,2013-04-04 06:43:00,
2013-04-04 00:53:00,26.0,10.0,-100.00,NNE,14,13.0,19.0,50,-99.99,,,-99.99,,2013-04-04 06:53:00,
2013-04-04 01:00:00,25.0,10.0,-100.00,NNE,13,12.0,20.0,51,-99.99,,,-99.99,,2013-04-04 07:00:00,
2013-04-04 01:43:00,25.0,10.0,-100.00,NNE,13,12.0,20.0,51,-99.99,,,-99.99,,2013-04-04 07:43:00,
2013-04-04 01:53:00,25.0,10.0,-100.00,NNE,13,12.0,20.0,51,-99.99,,,-99.99,,2013-04-04 07:53:00,
2013-04-04 02:00:00,25.0,10.0,-100.00,North,10,11.0,15.0,52,-99.99,,,-99.99,,2013-04-04 08:00:00,
2013-04-04 02:43:00,25.0,10.0,-100.00,North,10,11.0,15.0,52,-99.99,,,-99.99,,2013-04-04 08:43:00,
2013-04-04 02:52:00,25.0,10.0,-100.00,North,10,11.0,15.0,52,-99.99,,,-99.99,,2013-04-04 08:52:00,
2013-04-04 03:00:00,25.0,10.0,-100.00,NNE,13,8.0,15.0,52,-99.99,,,-99.99,,2013-04-04 09:00:00,
2013-04-04 03:44:00,25.0,10.0,-100.00,NNE,13,8.0,15.0,52,-99.99,,,-99.99,,2013-04-04 09:44:00,
2013-04-04 03:54:00,25.0,10.0,-100.00,NNE,13,8.0,15.0,52,-99.99,,,-99.99,,2013-04-04 09:54:00,
2013-04-04 04:00:00,25.0,10.0,-100.00,North,360,10.0,19.0,51,-99.99,,,-99.99,,2013-04-04 10:00:00,
2013-04-04 04:43:00,25.0,10.0,-100.00,North,360,10.0,19.0,51,-99.99,,,-99.99,,2013-04-04 10:43:00,
2013-04-04 04:54:00,25.0,10.0,-100.00,North,360,10.0,19.0,51,-99.99,,,-99.99,,2013-04-04 10:54:00,
2013-04-04 05:00:00,25.0,12.0,-100.00,NNE,12,12.0,21.0,57,-99.99,,,-99.99,,2013-04-04 11:00:00,
2013-04-04 05:43:00,25.0,12.0,-100.00,NNE,12,12.0,21.0,57,-99.99,,,-99.99,,2013-04-04 11:43:00,
2013-04-04 05:54:00,25.0,12.0,-100.00,NNE,12,12.0,21.0,57,-99.99,,,-99.99,,2013-04-04 11:54:00,
2013-04-04 06:00:00,25.0,11.0,-100.00,North,8,12.0,19.0,55,-99.99,,,-99.99,,2013-04-04 12:00:00,
2013-04-04 06:44:00,25.0,11.0,-100.00,North,8,12.0,19.0,55,-99.99,,,-99.99,,2013-04-04 12:44:00,
2013-04-04 06:52:00,25.0,11.0,-100.00,North,8,12.0,19.0,55,-99.99,,,-99.99,,2013-04-04 12:52:00,
2013-04-04 07:00:00,25.0,9.0,-100.00,North,4,14.0,20.0,49,-99.99,,,-99.99,,2013-04-04 13:00:00,
2013-04-04 07:43:00,25.0,9.0,-100.00,North,4,14.0,20.0,49,-99.99,,,-99.99,,2013-04-04 13:43:00,
2013-04-04 07:53:00,25.0,9.0,-100.00,North,4,14.0,20.0,49,-99.99,,,-99.99,,2013-04-04 13:53:00,
2013-04-04 08:00:00,27.0,5.0,-100.00,North,360,10.0,17.0,38,-99.99,,,-99.99,,2013-04-04 14:00:00,
2013-04-04 08:43:00,27.0,5.0,-100.00,North,360,10.0,17.0,38,-99.99,,,-99.99,,2013-04-04 14:43:00,
2013-04-04 08:53:00,27.0,5.0,-100.00,North,360,10.0,17.0,38,-99.99,,,-99.99,,2013-04-04 14:53:00,
2013-04-04 09:00:00,29.0,4.0,-100.00,North,2,10.0,17.0,33,-99.99,,,-99.99,,2013-04-04 15:00:00,
2013-04-04 09:43:00,29.0,4.0,-100.00,North,2,10.0,17.0,33,-99.99,,,-99.99,,2013-04-04 15:43:00,
2013-04-04 09:54:00,29.0,4.0,-100.00,North,2,10.0,17.0,33,-99.99,,,-99.99,,2013-04-04 15:54:00,
2013-04-04 10:00:00,32.0,3.0,-100.00,NNW,338,4.0,10.0,28,-99.99,,,-99.99,,2013-04-04 16:00:00,
2013-04-04 10:43:00,32.0,3.0,-100.00,NNW,338,4.0,10.0,28,-99.99,,,-99.99,,2013-04-04 16:43:00,
2013-04-04 10:54:00,32.0,3.0,-100.00,NNW,338,4.0,10.0,28,-99.99,,,-99.99,,2013-04-04 16:54:00,
2013-04-04 11:00:00,35.0,0.0,-100.00,NW,310,5.0,12.0,22,-99.99,,,-99.99,,2013-04-04 17:00:00,
2013-04-04 11:43:00,35.0,0.0,-100.00,NW,310,5.0,12.0,22,-99.99,,,-99.99,,2013-04-04 17:43:00,
2013-04-04 11:53:00,35.0,0.0,-100.00,NW,310,5.0,12.0,22,-99.99,,,-99.99,,2013-04-04 17:53:00,
2013-04-04 12:00:00,36.0,5.0,-100.00,SSW,206,8.0,20.0,27,-99.99,,,-99.99,,2013-04-04 18:00:00,
2013-04-04 12:43:00,36.0,5.0,-100.00,SSW,206,8.0,20.0,27,-99.99,,,-99.99,,2013-04-04 18:43:00,
2013-04-04 12:52:00,36.0,5.0,-100.00,SSW,206,8.0,20.0,27,-99.99,,,-99.99,,2013-04-04 18:52:00,
2013-04-04 13:00:00,36.0,9.0,-100.00,WSW,240,12.0,21.0,32,-99.99,,,-99.99,,2013-04-04 19:00:00,
2013-04-04 13:43:00,36.0,9.0,-100.00,WSW,240,12.0,21.0,32,-99.99,,,-99.99,,2013-04-04 19:43:00,
2013-04-04 13:52:00,36.0,9.0,-100.00,WSW,240,12.0,21.0,32,-99.99,,,-99.99,,2013-04-04 19:52:00,
2013-04-04 14:00:00,37.0,10.0,-100.00,SW,228,10.0,23.0,32,-99.99,,,-99.99,,2013-04-04 20:00:00,
2013-04-04 14:42:00,37.0,10.0,-100.00,SW,228,10.0,23.0,32,-99.99,,,-99.99,,2013-04-04 20:42:00,
2013-04-04 14:53:00,37.0,10.0,-100.00,SW,228,10.0,23.0,32,-99.99,,,-99.99,,2013-04-04 20:53:00,
2013-04-04 15:00:00,38.0,10.0,-100.00,SW,226,10.0,21.0,31,-99.99,,,-99.99,,2013-04-04 21:00:00,
2013-04-04 15:43:00,38.0,10.0,-100.00,SW,226,10.0,21.0,31,-99.99,,,-99.99,,2013-04-04 21:43:00,
2013-04-04 15:53:00,38.0,10.0,-100.00,SW,226,10.0,21.0,31,-99.99,,,-99.99,,2013-04-04 21:53:00,
2013-04-04 16:00:00,39.0,10.0,-100.00,SW,219,11.0,29.0,29,-99.99,,,-99.99,,2013-04-04 22:00:00,
2013-04-04 16:43:00,39.0,10.0,-100.00,SW,219,11.0,29.0,29,-99.99,,,-99.99,,2013-04-04 22:43:00,
2013-04-04 16:53:00,39.0,10.0,-100.00,SW,219,11.0,29.0,29,-99.99,,,-99.99,,2013-04-04 22:53:00,
2013-04-04 17:00:00,39.0,10.0,-100.00,SW,222,12.0,25.0,29,-99.99,,,-99.99,,2013-04-04 23:00:00,
2013-04-04 17:42:00,39.0,10.0,-100.00,SW,222,12.0,25.0,29,-99.99,,,-99.99,,2013-04-04 23:42:00,
2013-04-04 17:52:00,39.0,10.0,-100.00,SW,222,12.0,25.0,29,-99.99,,,-99.99,,2013-04-04 23:52:00,
2013-04-04 18:00:00,39.0,10.0,-100.00,SW,216,12.0,30.0,30,-99.99,,,-99.99,,2013-04-05 00:00:00,
2013-04-04 18:43:00,39.0,10.0,-100.00,SW,216,12.0,30.0,30,-99.99,,,-99.99,,2013-04-05 00:43:00,
2013-04-04 18:52:00,39.0,10.0,-100.00,SW,216,12.0,30.0,30,-99.99,,,-99.99,,2013-04-05 00:52:00,
2013-04-04 19:00:00,37.0,10.0,-100.00,SW,226,12.0,25.0,32,-99.99,,,-99.99,,2013-04-05 01:00:00,
2013-04-04 19:42:00,37.0,10.0,-100.00,SW,226,12.0,25.0,32,-99.99,,,-99.99,,2013-04-05 01:42:00,
2013-04-04 19:53:00,37.0,10.0,-100.00,SW,226,12.0,25.0,32,-99.99,,,-99.99,,2013-04-05 01:53:00,
2013-04-04 20:00:00,34.0,10.0,-100.00,SW,229,13.0,25.0,35,-99.99,,,-99.99,,2013-04-05 02:00:00,
2013-04-04 20:42:00,34.0,10.0,-100.00,SW,229,13.0,25.0,35,-99.99,,,-99.99,,2013-04-05 02:42:00,
2013-04-04 20:52:00,34.0,10.0,-100.00,SW,229,13.0,25.0,35,-99.99,,,-99.99,,2013-04-05 02:52:00,
2013-04-04 21:00:00,33.0,9.0,-100.00,SW,224,15.0,26.0,36,-99.99,,,-99.99,,2013-04-05 03:00:00,
2013-04-04 21:43:00,33.0,9.0,-100.00,SW,224,15.0,26.0,36,-99.99,,,-99.99,,2013-04-05 03:43:00,
2013-04-04 21:54:00,33.0,9.0,-100.00,SW,224,15.0,26.0,36,-99.99,,,-99.99,,2013-04-05 03:54:00,
2013-04-04 22:00:00,31.0,8.0,-100.00,WSW,238,15.0,26.0,37,-99.99,,,-99.99,,2013-04-05 04:00:00,
2013-04-04 22:42:00,31.0,8.0,-100.00,WSW,238,15.0,26.0,37,-99.99,,,-99.99,,2013-04-05 04:42:00,
2013-04-04 22:52:00,31.0,8.0,-100.00,WSW,238,15.0,26.0,37,-99.99,,,-99.99,,2013-04-05 04:52:00,
2013-04-04 23:00:00,31.0,7.0,-100.00,SW,234,13.0,22.0,36,-99.99,,,-99.99,,2013-04-05 05:00:00,
2013-04-04 23:42:00,31.0,7.0,-100.00,SW,234,13.0,22.0,36,-99.99,,,-99.99,,2013-04-05 05:42:00,
2013-04-04 23:53:00,31.0,7.0,-100.00,SW,234,13.0,22.0,36,-99.99,,,-99.99,,2013-04-05 05:53:00,